Location: Unspecified
(47.1121°N, 116.3927°W)
Time: 17:12:16
(UTC-08:00)

Resurs 1-4 Rocket - Pass Details

Date: 15 October 2019
Orbit: 800 x 813 km, 98.6° (Epoch: 14 November)

Event Time Altitude Azimuth Distance (km) Brightness Sun altitude
Rises 03:13:46 0° 9° (N) 3,345 5.8 -38.3°
Reaches altitude 10° 03:16:11 10° 4° (N) 2,411 4.9 -37.9°
Enters shadow 03:16:57 14° 1° (N) 2,124 4.6 -37.8°
